Showing default

ALSAT 1N, 41789

Orbit data source: Space-Track

ALSAT 1N, 41789 is an Algerian payload satellite in SSO that was launched on Mon, 26 Sep 2016 UTC via a PSLV launch vehicle from the Sirharikota (SRI). Payload-class satellites include a variety of spacecraft equipped with specific instruments for various scientific and technological missions. These include communications satellites like Starlink; space stations such as the ISS; scientific satellites like the Hubble; Earth observation satellites from companies like Planet Labs, Umbra, and HawkEye 360; GPS; miniature CubeSats for education and research; and military/defense satellites.

Loading next visibility...
Identifier
41789, 2016-059G
Orbit
SSO
Last TLE update
8 hours ago
Origin
Manufacturer
ASAL/SSC
Mission
Non-operational Civil Imaging
Bus & Motor
CUBESAT 3U, Unknown motor
Mass
7 kg wet, 7 kg dry
Launch date (UTC)
2016-09-26 (9 years ago)
Launch vehicle
PSLV
Launch site
Sirharikota (SRI)
Object type
Payload
Rocket body
Debris
Shape & HBR
Box, 0.3 m
Radar Cross Section
0.075 m², Small (<0.1 m²)

Expand to show TLE details & history

TLE from 8 hours ago
0 ALSAT 1N
1 41789U 16059G   25182.84046463  .00000618  00000-0  11445-3 0  9996
2 41789  97.8041 196.9922 0025239 225.5504 134.3637 14.68402392468578
Epoch: 2025-07-01T20:10Z
TLE epoch observation values (Epoch: 2025-07-01T20:10:16.144Z)
Latitude
-0.00005°
Longitude
-25.7052°
Altitude
681.638 km
Speed
7.509 km/s
True Right ascension
13h 07m 58s
True Declination
0° 00' 00"
Sunlit
Object was in daylight at epoch
Visualization orbit readout
Latitude
2.80156°
Longitude
-25.76184°
Altitude
682.152 km
Speed
7.509 km/s
Apparent Right ascension
10h 11m 54s
Apparent Declination
-37° 20' 10"
Sunlit
Object is in daylight
Visualization observer readout
Local Sidereal Time
16:03:03
Azimuth
238.606° WSW
Elevation
-21.446°
Doppler factor
1
Orbital elements
Apogee altitude
680.997 km
Perigee altitude
645.453 km
Semi-major axis
7,041.362 km
Eccentricity
0.00252
Inclination
97.8041°
RAAN
196.9922°
Arg. of periapsis
225.5504°
True anomaly
Unknown
Mean anomaly
134.3637°
Eccentric anomaly
Unknown
Mean motion
3.67331 °/min
Orbital period
98 mins
BSTAR
0.00011445
Loading maneuver chart data...
Loading SW <> Apogee altitude chart data...
Loading historical data...
Loading historical data...
Loading historical data...
Loading historical data...
Loading historical data...
Loading historical data...
Loading historical data...

ALSAT 1N Visibility forecast

Observer location: undefined°, undefined°

Span
Click to sort rows by Start time (UTC) header in descending order
Start Az.
Max El. time (UTC)
Max El. Az.
Max El.
End time (UTC)
End Az.
7 mins2025-07-02 13:06:39.841Z38.887° NE2025-07-02 13:09:39.841Z86.007° E26.119°2025-07-02 13:13:39.841Z154.968° SSE
5 mins2025-07-02 14:44:39.841Z333.073° NNW2025-07-02 14:46:39.841Z298.574° NW22.836°2025-07-02 14:49:39.841Z246.112° WSW
6 mins2025-07-03 00:07:39.841Z113.392° SE2025-07-03 00:10:39.841Z58.672° ENE23.844°2025-07-03 00:13:39.841Z15.196° NNE
6 mins2025-07-03 01:44:39.841Z217.063° SW2025-07-03 01:46:39.841Z252.51° W25.749°2025-07-03 01:50:39.841Z321.189° NNW
|